Preview of NWS' New Version of Forecast
This preview is not operational and should not be used for support decisions.

Regional Weather Roundup (RWR)

Issued by Gray - Portland, ME (GYX)

                            
000
ASUS41 KGYX 240205
RWRGYX
WEATHER ROUNDUP FOR MAINE AND NEW HAMPSHIRE
NATIONAL WEATHER SERVICE GRAY ME
1000 PM EDT TUE APR 23 2019

MEZ002-005-006-010-012-015-018-020-021-024-026-027-029-240300-
MAINE
  
CITY           SKY/WX    TMP DP  RH WIND       PRES   REMARKS
PORTLAND       CLOUDY    45  38  76 N5        29.87F                  
SANFORD        CLOUDY    44  42  93 S5        29.88S                  
BAR HARBOR     CLOUDY    40  38  93 N12       29.84F                  
WISCASSET      CLOUDY    43  39  86 VRB3      29.88F                  
ROCKLAND       CLOUDY    42  39  89 NE6       29.85F                  
FRYEBURG       CLOUDY    44  40  85 SE3       29.87F                  
LEWISTONAUBURN CLOUDY    43  39  86 NE3       29.87F                  
AUGUSTA        CLOUDY    41  39  93 NE7       29.87F                  
WATERVILLE     CLOUDY    41  38  89 NE7       29.84F                  
BANGOR         CLOUDY    40  38  93 N12       29.86F                  
GREENVILLE       N/A     36  34  92 NE3       29.81F                  
MILLINOCKET    CLOUDY    37  35  92 N8        29.90F FOG              
HOULTON        CLOUDY    35  34  96 N6        29.87F FOG              
PRESQUE ISLE   CLOUDY    35  31  85 N12       29.92F                  
FRENCHVILLE    CLOUDY    34  27  75 NE12G24   29.92F                  
CARIBOU        CLOUDY    35  30  82 N9        29.90F                  
$$

NHZ002-005-008-009-011-012-014-240300-
NEW HAMPSHIRE
  
CITY           SKY/WX    TMP DP  RH WIND       PRES   REMARKS
PORTSMOUTH     CLOUDY    44  40  88 E7        29.87F                  
ROCHESTER      CLOUDY    45  42  89 SE5       29.87S                  
NASHUA         CLOUDY    48  46  93 SE8       29.86S                  
MANCHESTER     CLOUDY    48  42  80 SE9       29.85S                  
CONCORD        CLOUDY    46  42  86 SE10      29.85F                  
LACONIA        CLOUDY    47  42  83 NE8       29.84F                  
PLYMOUTH       CLOUDY    50  43  78 CALM      29.83S                  
BERLIN         CLOUDY    45  41  86 CALM      29.80F                  
WHITEFIELD     CLOUDY    47  41  80 E9        29.75F                  
JAFFREY        CLOUDY    52  48  86 S6        29.81F                  
KEENE          LGT RAIN  57  52  83 SE5       29.78F                  
LEBANON        CLOUDY    59  48  67 CALM      29.76S                  
MT WASHINGTON  MOCLDY    38  38  99 W43         N/A                   
$$

VTZ005-007-008-240300-
VERMONT
  
CITY           SKY/WX    TMP DP  RH WIND       PRES   REMARKS
ST JOHNSBURY     N/A     56  46  69 MISG      29.72F                  
MONTPELIER     CLOUDY    58  49  72 S10       29.76S                  
BURLINGTON     LGT RAIN  58  51  78 S7        29.66F                  
$$

MAZ007-012-024-CTZ003-RIZ002-NYZ038-NYZ072-240300-
SOUTHERN NEW ENGLAND AND NY
  
CITY           SKY/WX    TMP DP  RH WIND       PRES   REMARKS
BOSTON         CLOUDY    47  42  83 E12G21    29.88F                  
WORCESTER      CLOUDY    52  50  93 S9        29.82F                  
NANTUCKET      CLOUDY    44  42  93 SE8       29.91F                  
PROVIDENCE     CLOUDY    49  46  90 S14       29.87F                  
HARTFORD       CLOUDY    61  49  64 S13       29.78F                  
ALBANY         LGT RAIN  62  55  77 SE3       29.74S                  
NEW YORK CITY  CLOUDY    60  51  72 S8        29.77F                  
$$

ANZ081-ANZ082-ANZ150-NHZ014-MEZ023>029-240300-
COASTAL MARINE OBSERVATIONS
  
STATION/POSITION TIME  TEMP    WIND        PRES    WAVE
                       AIR SEA DIR/SP/G            HT/PER
                 (UTC) (F)     (DEG/KT/KT) (MB)    (FT/S)
ISLE OF SHOALS   0100   43      90/  7/  7 1012.0R
$$

.............KEY..............
   WCI - WIND CHILL
   TC  - TEMPERATURE IN CELSIUS
   VSB - VISIBILITY IN MILES
   HX  - HEAT INDEX
   FAIR- INDICATES FEW OR NO CLOUDS BELOW 12,000 FT, WITH NO 
         SIGNIFICANT WEATHER AND/OR OBSTRUCTIONS TO VISIBILITY.